Tracking 29487 objects as of 11-Sep-2024
HD Live streaming from Space Station
objects crossing your sky now

COSMOS 249 DEB

Track COSMOS 249 DEB now!
10-day predictions


NORAD ID: 3912
Int'l Code: 1968-091BQ
Perigee: 788.6 km
Apogee: 1,969.6 km
Inclination: 62.3 °
Period: 113.2 minutes
Semi major axis: 7750 km
RCS: 0.0292 m2 (small)
Launch date: October 20, 1968
Source: Commonwealth of Independent States (former USSR) (CIS)
Launch site: TYURATAM MISSILE AND SPACE COMPLEX (TTMTR)

Note: This is SATELLITE DEBRIS
Your satellite tracking list
Your tracking list is empty




NASA's NSSDC Master Catalog

Two Line Element Set (TLE):
1 03912U 68091BQ  24254.36163473  .00001871  00000-0  28783-2 0  9996
2 03912  62.2621   8.3768 0761914 295.3349  57.0618 12.72453430563193
Source of the keplerian elements: AFSPC